Starlink 33607

operational
NORAD ID: 63323 Int'l Des: 2025-057 Owner: SPXS Country: US Constellation: starlink
LEOCIRCULAR

Starlink 33607について

説明を読み込み中...

リアルタイム位置

3D地球を読み込み中...

次回通過

高度履歴

Altitude vs Time

uPlot chart will show altitude changes over time

軌道要素

1 63323U 25057S 25352.38684252 .00027237 00000-0 99486-3 0 9991
2 63323 43.0000 129.9698 0001106 266.6901 93.3825 15.27605391 43307
Epoch: Dec 18, 2025 • Age: 49 hours

現在のステータス

高度 484.0 km
速度 7.63 km/s
衛星直下点 31.06°N, 11.66°E
打ち上げ日 Mar 18, 2025
運用期間 0.7 years
タイプ internet

技術仕様

分類 Payload
質量 575.00 kg
乾燥質量 530.00 kg
総質量 575.00 kg
長さ 0.30 m
直径 4.10 m
スパン 29.00 m
形状 Box + pan
製造者 SPXS
バスタイプ Starlink V2MO
フェーズステータス In Orbit
所有者/国 SPXS/US

大規模コンステレーション

Loading constellations...